EW9318 Weather Reports


Display with metric or nautical units.
time (UTC)temp
F
wind
direction
speed
MPH
gust
MPH
rain 1hr
in
rain 24hr
in
rain mn
in
humidity
%
barometer
mb
20260901231516 78 0.0 2.0 0.00 0.01 0.01 92 1012.9
20260901231016 78 150 0.0 3.0 0.00 0.01 0.01 92 1012.7
20260901230516 78 145 1.0 3.0 0.00 0.01 0.01 92 1012.6
20260901230016 78 147 1.0 3.0 0.00 0.01 0.01 92 1012.4
20260901225516 78 125 0.0 1.0 0.00 0.01 0.01 92 1012.5
20260901225016 78 119 0.0 2.0 0.00 0.01 0.01 91 1012.6
20260901224516 78 124 0.0 2.0 0.00 0.01 0.01 90 1012.5
20260901224016 78 125 0.0 8.0 0.00 0.01 0.01 90 1012.6
20260901223516 78 133 3.0 8.0 0.00 0.01 0.01 90 1012.4
20260901223036 78 136 6.0 8.0 0.00 0.01 0.01 89 1012.3
20260901222516 79 136 2.0 4.0 0.00 0.02 0.01 88 1012.7
20260901222016 79 134 2.0 4.0 0.01 0.02 0.01 88 1012.9
20260901221516 79 151 0.0 2.0 0.01 0.02 0.01 87 1013.1
20260901221016 80 248 0.0 2.0 0.01 0.02 0.01 86 1013.4
20260901220515 80 291 0.0 2.0 0.01 0.02 0.01 86 1013.5
20260901220016 80 259 0.0 1.0 0.01 0.02 0.01 84 1013.3
20260901215537 80 258 0.0 2.0 0.01 0.02 0.01 83 1013.2
20260901215017 79 276 0.0 2.0 0.01 0.02 0.01 83 1013.1
20260901214515 80 269 0.0 2.0 0.01 0.02 0.01 83 1013.0
20260901214016 80 270 1.0 3.0 0.01 0.02 0.01 83 1012.8
20260901213536 80 263 0.0 3.0 0.01 0.02 0.01 82 1012.8
20260901213017 80 271 0.0 3.0 0.01 0.03 0.01 82 1012.8
20260901212516 80 211 0.0 2.0 0.01 0.03 0.01 83 1012.7
20260901212037 79 180 0.0 3.0 0.00 0.02 0.00 82 1012.7
20260901211516 79 325 1.0 4.0 0.00 0.02 0.00 83 1012.7
20260901211016 79 286 1.0 9.0 0.00 0.02 0.00 82 1012.9
20260901210537 80 230 3.0 10.0 0.00 0.02 0.00 81 1012.9
20260901210016 80 250 6.0 10.0 0.00 0.02 0.00 80 1012.9
20260901205516 80 249 5.0 9.0 0.00 0.03 0.00 78 1013.0
20260901205016 81 247 4.0 9.0 0.00 0.03 0.00 78 1012.8
20260901204517 81 257 5.0 9.0 0.00 0.03 0.00 78 1012.7
20260901204035 81 237 5.0 8.0 0.00 0.03 0.00 78 1012.6
20260901203516 81 237 4.0 12.0 0.00 0.03 0.00 77 1012.7
20260901203015 81 245 7.0 12.0 0.00 0.03 0.00 78 1012.6
20260901202516 81 244 7.0 12.0 0.00 0.03 0.00 76 1012.6
20260901202037 82 261 7.0 14.0 0.00 0.03 0.00 75 1012.7
20260901201515 82 254 10.0 14.0 0.00 0.03 0.00 74 1012.7
20260901201015 83 230 8.0 12.0 0.00 0.03 0.00 75 1012.7
20260901200517 83 234 7.0 13.0 0.00 0.03 0.00 76 1012.7
20260901200015 82 249 7.0 13.0 0.00 0.03 0.00 76 1012.6
20260901195515 82 253 5.0 12.0 0.00 0.03 0.00 75 1012.5
20260901195056 82 250 7.0 12.0 0.00 0.03 0.00 75 1012.6
20260901194516 82 214 5.0 12.0 0.00 0.03 0.00 79 1012.6
20260901194015 82 233 7.0 14.0 0.00 0.03 0.00 77 1012.6
20260901193517 82 200 7.0 14.0 0.00 0.03 0.00 77 1012.5
20260901193015 83 213 6.0 12.0 0.00 0.03 0.00 77 1012.6
20260901192517 83 194 5.0 10.0 0.00 0.03 0.00 78 1012.7
20260901192015 83 192 5.0 9.0 0.00 0.03 0.00 78 1012.7
20260901191516 82 212 3.0 11.0 0.00 0.03 0.00 81 1012.7
20260901191015 81 225 6.0 11.0 0.00 0.03 0.00 81 1012.9
20260901190536 81 227 6.0 10.0 0.00 0.03 0.00 79 1012.9
20260901190016 81 234 4.0 8.0 0.00 0.03 0.00 79 1012.9
20260901185535 82 244 4.0 10.0 0.00 0.03 0.00 79 1013.1
20260901185015 82 241 6.0 10.0 0.00 0.03 0.00 78 1013.3
20260901184516 82 226 4.0 8.0 0.00 0.03 0.00 79 1013.2
20260901184035 82 235 4.0 8.0 0.00 0.03 0.00 78 1013.1
20260901183517 82 213 3.0 11.0 0.00 0.03 0.00 79 1012.9
20260901183015 82 226 5.0 11.0 0.00 0.03 0.00 78 1012.8
20260901182516 82 206 4.0 9.0 0.00 0.03 0.00 79 1012.8
20260901182016 82 222 3.0 12.0 0.00 0.03 0.00 78 1012.7
20260901181517 83 226 5.0 12.0 0.00 0.03 0.00 78 1012.9
20260901181035 83 239 6.0 11.0 0.00 0.03 0.00 77 1013.0
20260901180515 83 219 7.0 14.0 0.00 0.03 0.00 76 1013.3
20260901180015 84 237 9.0 16.0 0.00 0.03 0.00 76 1013.3
20260901175516 84 233 9.0 16.0 0.00 0.03 0.00 76 1013.6
20260901175015 84 246 8.0 16.0 0.00 0.03 0.00 75 1013.6
20260901174516 84 243 10.0 15.0 0.00 0.03 0.00 76 1013.6
20260901174017 84 238 9.0 14.0 0.00 0.03 0.00 76 1013.6
20260901173516 84 245 7.0 14.0 0.00 0.03 0.00 77 1013.4
20260901173015 83 236 6.0 10.0 0.00 0.03 0.00 77 1013.3
20260901172536 83 224 6.0 10.0 0.00 0.03 0.00 78 1013.2
20260901172016 83 241 6.0 9.0 0.00 0.03 0.00 78 1013.3
20260901171515 83 268 5.0 11.0 0.00 0.03 0.00 78 1013.3
20260901171015 83 258 8.0 11.0 0.00 0.03 0.00 78 1013.5
20260901170515 82 252 5.0 12.0 0.00 0.03 0.00 79 1013.4
20260901170015 82 247 8.0 13.0 0.00 0.03 0.00 78 1013.4
20260901165535 82 247 8.0 13.0 0.00 0.03 0.00 78 1013.4
20260901165015 82 252 7.0 11.0 0.00 0.03 0.00 78 1013.4
20260901164515 83 226 7.0 11.0 0.00 0.03 0.00 77 1013.4
20260901164015 82 235 5.0 10.0 0.00 0.03 0.00 80 1013.3
20260901163515 82 236 5.0 11.0 0.00 0.03 0.00 79 1013.3
20260901163015 82 253 6.0 11.0 0.00 0.03 0.00 80 1013.3
20260901162515 82 252 4.0 10.0 0.00 0.03 0.00 79 1013.3
20260901162055 81 237 5.0 11.0 0.00 0.03 0.00 80 1013.3
20260901161535 81 277 5.0 11.0 0.00 0.03 0.00 79 1013.4
20260901161015 81 247 5.0 11.0 0.00 0.03 0.00 80 1013.4
20260901160515 81 268 6.0 11.0 0.00 0.03 0.00 80 1013.3
20260901160015 81 262 7.0 10.0 0.00 0.03 0.00 79 1013.4
20260901155535 81 233 6.0 10.0 0.00 0.03 0.00 81 1013.4
20260901155015 81 232 5.0 10.0 0.00 0.03 0.00 80 1013.4
20260901154517 81 232 5.0 11.0 0.00 0.03 0.00 80 1013.4
20260901154019 81 230 6.0 12.0 0.00 0.03 0.00 79 1013.3
20260901153518 81 230 7.0 12.0 0.00 0.03 0.00 80 1013.2
20260901153017 81 238 4.0 9.0 0.00 0.03 0.00 82 1013.2
20260901152517 80 237 5.0 11.0 0.00 0.03 0.00 82 1013.3
20260901152037 80 231 7.0 12.0 0.00 0.03 0.00 81 1013.4
20260901151517 80 235 7.0 12.0 0.00 0.03 0.00 82 1013.4
20260901151017 80 249 7.0 11.0 0.00 0.03 0.00 81 1013.4
20260901150517 80 238 6.0 11.0 0.00 0.03 0.00 81 1013.3
20260901150017 80 243 7.0 11.0 0.00 0.03 0.00 81 1013.3
20260901145517 80 253 5.0 13.0 0.00 0.03 0.00 81 1013.3
20260901145017 80 232 8.0 13.0 0.00 0.03 0.00 81 1013.3
20260901144537 80 234 7.0 11.0 0.00 0.03 0.00 82 1013.2
20260901144037 79 234 6.0 10.0 0.00 0.03 0.00 82 1013.2
20260901143518 79 236 6.0 12.0 0.00 0.03 0.00 83 1013.2
20260901143017 79 228 6.0 12.0 0.00 0.03 0.00 83 1013.2
20260901142557 79 236 7.0 12.0 0.00 0.03 0.00 83 1013.3
20260901142017 78 244 6.0 12.0 0.00 0.03 0.00 83 1013.3
20260901141517 78 242 6.0 11.0 0.00 0.03 0.00 83 1013.3
20260901141017 78 254 6.0 10.0 0.00 0.03 0.00 83 1013.3
20260901140517 78 245 5.0 9.0 0.00 0.04 0.00 84 1013.2
20260901140037 77 251 4.0 9.0 0.00 0.04 0.00 84 1013.2
20260901135518 77 246 4.0 7.0 0.00 0.04 0.00 85 1013.2
20260901135017 77 247 3.0 7.0 0.00 0.04 0.00 85 1013.1
20260901134517 76 247 4.0 10.0 0.00 0.04 0.00 86 1013.2
20260901134017 76 249 5.0 10.0 0.00 0.04 0.00 87 1013.2
20260901133517 75 259 4.0 10.0 0.00 0.04 0.00 88 1013.2
20260901133017 75 237 2.0 7.0 0.00 0.04 0.00 90 1013.1
20260901132518 74 244 3.0 5.0 0.00 0.04 0.00 91 1013.2
20260901132017 74 242 1.0 5.0 0.00 0.04 0.00 92 1013.2
20260901131517 73 230 1.0 5.0 0.00 0.04 0.00 93 1013.3
20260901131017 73 210 1.0 6.0 0.00 0.04 0.00 94 1013.3
20260901130517 72 216 2.0 6.0 0.00 0.04 0.00 95 1013.2
20260901130016 72 214 1.0 5.0 0.00 0.04 0.00 95 1013.1
20260901125516 72 202 0.0 3.0 0.00 0.04 0.00 95 1013.1
20260901125016 71 218 1.0 4.0 0.00 0.04 0.00 96 1013.1
20260901124517 71 202 1.0 4.0 0.00 0.04 0.00 96 1013.1
20260901124016 71 197 1.0 4.0 0.00 0.04 0.00 96 1013.1
20260901123518 70 210 1.0 4.0 0.00 0.04 0.00 96 1013.2
20260901123017 70 196 0.0 2.0 0.00 0.04 0.00 96 1013.2
20260901122517 70 204 0.0 2.0 0.00 0.04 0.00 96 1013.1
20260901122018 69 200 1.0 2.0 0.00 0.04 0.00 96 1013.2
20260901121518 69 167 0.0 3.0 0.00 0.04 0.00 96 1013.0
20260901121017 69 169 0.0 3.0 0.00 0.04 0.00 96 1013.1
20260901120537 68 174 0.0 3.0 0.00 0.04 0.00 96 1013.0
20260901120037 67 204 0.0 2.0 0.00 0.04 0.00 96 1012.9
20260901115516 67 360 0.0 2.0 0.00 0.04 0.00 96 1012.9
20260901115038 67 321 0.0 2.0 0.00 0.04 0.00 96 1012.9
20260901114516 66 226 0.0 2.0 0.00 0.04 0.00 95 1012.7
20260901114018 66 360 0.0 1.0 0.00 0.04 0.00 95 1012.6
20260901113516 66 360 0.0 2.0 0.00 0.04 0.00 95 1012.3
20260901113016 66 360 0.0 2.0 0.00 0.04 0.00 95 1012.3
20260901112518 66 360 0.0 2.0 0.00 0.04 0.00 95 1012.3
20260901112016 66 360 0.0 2.0 0.00 0.04 0.00 95 1012.3
20260901111518 66 0.0 1.0 0.00 0.04 0.00 95 1012.3
20260901111016 66 360 0.0 1.0 0.00 0.04 0.00 95 1012.5
20260901110517 66 0.0 0.0 0.00 0.04 0.00 95 1012.5
20260901110036 66 0.0 0.0 0.00 0.04 0.00 95 1012.4
20260901105518 66 0.0 0.0 0.00 0.04 0.00 95 1012.5
20260901105036 66 0.0 0.0 0.00 0.04 0.00 95 1012.5
20260901104516 66 0.0 0.0 0.00 0.04 0.00 95 1012.5
20260901104157 66 0.0 0.0 0.00 0.04 0.00 95 1012.4
20260901103516 67 0.0 0.0 0.00 0.04 0.00 95 1012.4
20260901103036 67 0.0 0.0 0.00 0.04 0.00 95 1012.3
20260901102516 67 0.0 0.0 0.00 0.04 0.00 95 1012.4
20260901102017 67 0.0 0.0 0.00 0.04 0.00 95 1012.4
20260901101518 67 0.0 0.0 0.00 0.04 0.00 95 1012.4
20260901101016 67 0.0 0.0 0.00 0.04 0.00 95 1012.4
20260901100516 67 0.0 0.0 0.00 0.04 0.00 95 1012.3
20260901100017 67 0.0 0.0 0.00 0.04 0.00 95 1012.3
20260901095538 67 0.0 1.0 0.00 0.04 0.00 95 1012.2
20260901095016 67 78 0.0 1.0 0.00 0.04 0.00 95 1012.2
20260901094517 67 0.0 0.0 0.00 0.04 0.00 95 1012.2
20260901094016 67 0.0 0.0 0.00 0.04 0.00 95 1012.1
20260901093516 67 0.0 0.0 0.00 0.04 0.00 95 1012.2
20260901093159 67 0.0 0.0 0.00 0.04 0.00 95 1012.3
20260901092516 68 0.0 0.0 0.00 0.04 0.00 95 1012.3
20260901092036 68 0.0 0.0 0.00 0.04 0.00 95 1012.3
20260901091516 68 0.0 0.0 0.00 0.04 0.00 95 1012.2
20260901091016 68 0.0 0.0 0.00 0.04 0.00 95 1012.3
20260901090516 68 0.0 0.0 0.00 0.04 0.00 95 1012.2
20260901090016 68 0.0 0.0 0.00 0.04 0.00 95 1012.2
20260901085536 68 0.0 0.0 0.00 0.04 0.00 95 1012.1
20260901085016 68 0.0 0.0 0.00 0.04 0.00 95 1012.1
20260901084517 68 0.0 0.0 0.00 0.04 0.00 95 1012.1
20260901084016 68 0.0 0.0 0.00 0.04 0.00 95 1012.2
20260901083536 68 0.0 0.0 0.00 0.04 0.00 94 1012.1
20260901083016 68 0.0 0.0 0.00 0.04 0.00 94 1012.2
20260901082516 68 0.0 0.0 0.00 0.04 0.00 94 1012.2
20260901082016 68 0.0 0.0 0.00 0.04 0.00 95 1012.3
20260901081516 68 0.0 0.0 0.00 0.04 0.00 95 1012.3
20260901081016 68 0.0 0.0 0.00 0.04 0.00 95 1012.3
20260901080516 68 0.0 0.0 0.00 0.04 0.00 94 1012.3
20260901080016 68 0.0 0.0 0.00 0.04 0.00 94 1012.4
20260901075516 68 0.0 0.0 0.00 0.04 0.00 94 1012.4
20260901075038 68 0.0 0.0 0.00 0.04 0.00 94 1012.4
20260901074516 68 0.0 0.0 0.00 0.04 0.00 94 1012.3
20260901074016 68 0.0 0.0 0.00 0.04 0.00 94 1012.4
20260901073516 68 0.0 0.0 0.00 0.04 0.00 94 1012.4
20260901073036 68 0.0 0.0 0.00 0.04 0.00 94 1012.4
20260901072516 68 0.0 0.0 0.00 0.04 0.00 94 1012.4
20260901072016 69 0.0 1.0 0.00 0.04 0.00 94 1012.4
20260901071516 69 125 0.0 2.0 0.00 0.04 0.00 94 1012.4
20260901071016 69 123 1.0 3.0 0.00 0.04 0.00 94 1012.3
20260901070516 69 103 1.0 3.0 0.00 0.04 0.00 94 1012.4
20260901070016 69 94 0.0 1.0 0.00 0.04 0.00 94 1012.4
20260901065516 69 0.0 0.0 0.00 0.04 0.00 94 1012.5
20260901065016 69 0.0 0.0 0.00 0.04 0.00 94 1012.5
20260901064517 69 0.0 0.0 0.00 0.04 0.00 94 1012.4
20260901064016 69 0.0 0.0 0.00 0.04 0.00 94 1012.3
20260901063536 69 0.0 0.0 0.00 0.04 0.00 94 1012.4
20260901063017 70 0.0 0.0 0.00 0.04 0.00 94 1012.4
20260901062516 69 0.0 0.0 0.00 0.04 0.00 93 1012.4
20260901062016 69 0.0 0.0 0.00 0.04 0.00 93 1012.3
20260901061516 70 0.0 0.0 0.00 0.04 0.00 93 1012.3
20260901061037 70 0.0 0.0 0.00 0.04 0.00 93 1012.3
20260901060516 70 0.0 0.0 0.00 0.04 0.00 93 1012.5
20260901060016 70 0.0 0.0 0.00 0.04 0.00 93 1012.4
20260901055516 70 0.0 0.0 0.00 0.04 0.00 93 1012.5
20260901055017 70 0.0 0.0 0.00 0.04 0.00 93 1012.5
20260901054516 70 0.0 0.0 0.00 0.04 0.00 93 1012.5
20260901054036 70 0.0 0.0 0.00 0.04 0.00 93 1012.5
20260901053517 70 0.0 0.0 0.00 0.04 0.00 93 1012.5
20260901053016 70 0.0 0.0 0.00 0.04 0.00 93 1012.6
20260901052516 71 0.0 0.0 0.00 0.04 0.00 93 1012.5
20260901052017 71 0.0 0.0 0.00 0.04 0.00 93 1012.5
20260901051517 71 0.0 0.0 0.00 0.04 0.00 93 1012.6
20260901051016 71 0.0 0.0 0.00 0.04 0.00 92 1012.5
20260901050516 71 0.0 0.0 0.00 0.04 0.00 93 1012.5
20260901050017 71 0.0 2.0 0.00 0.04 0.00 92 1012.4
20260901045516 71 100 0.0 2.0 0.00 0.04 0.00 92 1012.4
20260901045036 71 99 1.0 2.0 0.00 0.04 0.00 92 1012.3
20260901044516 71 94 0.0 2.0 0.00 0.04 0.00 92 1012.3
20260901044017 72 90 0.0 2.0 0.00 0.04 0.00 92 1012.3
20260901043516 72 350 0.0 1.0 0.00 0.04 0.00 92 1012.3
20260901043016 72 351 0.0 1.0 0.00 0.04 0.00 92 1012.3
20260901042517 72 351 0.0 1.0 0.00 0.04 0.00 92 1012.2
20260901042016 72 351 0.0 2.0 0.00 0.04 0.00 92 1012.3
20260901041517 72 348 1.0 2.0 0.00 0.04 0.00 92 1012.3
20260901041037 72 333 0.0 2.0 0.00 0.04 0.00 93 1012.4
20260901040516 72 345 0.0 3.0 0.00 0.04 0.00 93 1012.2
20260901040015 72 355 1.0 3.0 0.00 0.04 0.04 93 1012.2
20260901035516 72 357 1.0 2.0 0.00 0.04 0.04 93 1012.1
20260901035016 72 336 0.0 2.0 0.00 0.04 0.04 93 1012.0
20260901034516 72 331 0.0 3.0 0.00 0.04 0.04 93 1012.0
20260901034017 72 15 1.0 3.0 0.00 0.04 0.04 93 1011.9
20260901033536 72 113 1.0 4.0 0.00 0.04 0.04 93 1011.8
20260901033017 72 142 1.0 4.0 0.00 0.04 0.04 93 1011.7
20260901032516 72 156 0.0 4.0 0.00 0.04 0.04 93 1011.8
20260901032016 72 146 1.0 5.0 0.00 0.04 0.04 93 1011.9
20260901031537 72 153 2.0 5.0 0.00 0.04 0.04 93 1011.9
20260901031016 72 146 2.0 4.0 0.00 0.04 0.04 93 1012.0
20260901030516 72 141 0.0 1.0 0.00 0.04 0.04 93 1012.1
20260901030016 72 0.0 0.0 0.00 0.04 0.04 93 1012.1
20260901025516 72 0.0 1.0 0.00 0.04 0.04 92 1012.1
20260901025016 72 141 0.0 3.0 0.00 0.04 0.04 92 1012.2
20260901024536 72 133 1.0 3.0 0.00 0.04 0.04 92 1012.1
20260901024016 72 0.0 0.0 0.00 0.04 0.04 92 1012.2
20260901023516 72 0.0 0.0 0.00 0.04 0.04 92 1012.4
20260901023036 72 0.0 0.0 0.00 0.04 0.04 92 1012.5
20260901022516 72 0.0 0.0 0.00 0.04 0.04 92 1012.5
20260901022016 72 0.0 2.0 0.00 0.04 0.04 92 1012.6
20260901021516 73 13 0.0 3.0 0.00 0.04 0.04 91 1012.7
20260901021036 73 38 1.0 3.0 0.00 0.04 0.04 91 1012.8
20260901020516 73 0.0 0.0 0.00 0.04 0.04 91 1012.7
20260901020016 73 0.0 1.0 0.00 0.04 0.04 91 1012.6
20260901015556 73 127 0.0 2.0 0.00 0.04 0.04 91 1012.6
20260901015016 73 137 1.0 4.0 0.00 0.04 0.04 91 1012.4
20260901014516 73 135 2.0 4.0 0.00 0.04 0.04 90 1012.3
20260901014016 73 127 1.0 4.0 0.00 0.04 0.04 89 1012.3
20260901013537 74 0.0 0.0 0.00 0.04 0.04 89 1012.4
20260901013016 74 0.0 0.0 0.00 0.04 0.04 89 1012.4
20260901012517 74 0.0 2.0 0.00 0.04 0.04 88 1012.3
20260901012017 74 136 0.0 3.0 0.00 0.04 0.04 87 1012.3
20260901011536 75 144 1.0 3.0 0.00 0.04 0.04 87 1012.2
20260901011016 75 168 0.0 1.0 0.00 0.04 0.04 86 1012.2
20260901010517 75 0.0 1.0 0.00 0.04 0.04 85 1012.3
20260901010016 76 314 0.0 1.0 0.00 0.04 0.04 85 1012.2
20260901005516 76 281 0.0 1.0 0.00 0.04 0.04 84 1012.1
20260901005016 76 281 0.0 1.0 0.00 0.04 0.04 84 1012.1
20260901004516 77 0.0 0.0 0.00 0.04 0.04 83 1012.0
20260901004016 77 0.0 0.0 0.00 0.04 0.04 83 1011.9
20260901003516 77 0.0 0.0 0.00 0.04 0.04 83 1012.0
20260901003016 77 0.0 1.0 0.00 0.04 0.04 82 1012.0
20260901002618 77 281 0.0 1.0 0.00 0.04 0.04 82 1011.9
20260901002016 77 281 0.0 1.0 0.00 0.04 0.04 82 1011.9
20260901001516 78 286 0.0 3.0 0.00 0.04 0.04 82 1011.9
20260901001036 78 222 1.0 4.0 0.00 0.04 0.04 82 1011.8
20260901000536 78 229 0.0 4.0 0.00 0.04 0.04 82 1011.8
20260901000016 78 211 2.0 5.0 0.00 0.04 0.04 82 1011.8
20260831235516 78 209 2.0 5.0 0.00 0.04 0.04 81 1011.7
20260831235016 78 224 1.0 4.0 0.00 0.04 0.04 81 1011.6
20260831234515 78 251 2.0 5.0 0.00 0.04 0.04 81 1011.6
20260831234016 78 253 2.0 5.0 0.00 0.04 0.04 81 1011.7
20260831233515 78 264 1.0 3.0 0.00 0.04 0.04 81 1011.6
20260831233016 78 232 0.0 4.0 0.00 0.04 0.04 81 1011.5
20260831232516 78 222 1.0 4.0 0.01 0.04 0.04 81 1011.5
20260831232016 77 188 0.0 2.0 0.01 0.04 0.04 81 1011.5